Location: Bjelajci
(45.0103°N, 16.1758°E)
Time: 19:47:28
(UTC+00:00)

Cosmos 1378 - Pass Details

Date: 14 July 2020
Orbit: 493 x 500 km, 82.5° (Epoch: 05 August)

Event Time Altitude Azimuth Distance (km) Brightness Sun altitude
Rises 01:51:23 0° 351° (N) 2,605 7.4 -12.9°
Reaches altitude 10° 01:53:30 10° 352° (N) 1,717 6.4 -12.7°
Maximum altitude 01:57:17 85° 83° (E) 510 3.1 -12.2°
Drops below altitude 10° 02:01:00 10° 171° (S) 1,702 5.5 -11.8°
Enters shadow 02:01:45 - 171° (S) 2,009 5.8 -11.7°
